| time (UTC) | temp F | wind direction | speed knots | gust knots | rain 1hr in | rain 24hr in | rain mn in | humidity % | barometer mb |
| 20260505230728 | 64 | 194 | 11.3 | 20.9 | 0.00 | 0.03 | 0.03 | 37 | 1004.4 |
| 20260505225656 | 62 | 151 | 12.2 | 20.0 | 0.00 | 0.03 | 0.03 | 43 | 1004.5 |
| 20260505224628 | 62 | 163 | 10.4 | 20.0 | 0.00 | 0.03 | 0.03 | 44 | 1004.6 |
| 20260505223633 | 61 | 142 | 10.4 | 18.2 | 0.00 | 0.03 | 0.03 | 43 | 1004.6 |
| 20260505222642 | 62 | 179 | 11.3 | 23.5 | 0.00 | 0.03 | 0.03 | 44 | 1004.7 |
| 20260505220540 | 64 | 152 | 7.0 | 14.8 | 0.00 | 0.03 | 0.03 | 48 | 1004.8 |
| 20260505215600 | 61 | 142 | 8.7 | 14.8 | 0.00 | 0.03 | 0.03 | 50 | 1005.0 |
| 20260505213455 | 61 | 148 | 7.8 | 13.0 | 0.00 | 0.03 | 0.03 | 57 | 1005.4 |
| 20260505212509 | 59 | 117 | 6.1 | 13.0 | 0.00 | 0.03 | 0.03 | 59 | 1005.6 |
| 20260505211523 | 58 | 136 | 7.0 | 13.0 | 0.00 | 0.03 | 0.03 | 64 | 1005.7 |
| 20260505210456 | 57 | 148 | 4.3 | 12.2 | 0.00 | 0.03 | 0.03 | 68 | 1005.7 |
| 20260505205505 | 56 | 139 | 7.8 | 12.2 | 0.00 | 0.03 | 0.03 | 72 | 1005.9 |
| 20260505204504 | 59 | 172 | 7.0 | 14.8 | 0.00 | 0.03 | 0.03 | 59 | 1005.9 |
| 20260505203437 | 60 | 215 | 9.6 | 14.8 | 0.00 | 0.03 | 0.03 | 53 | 1005.7 |
| 20260505202445 | 61 | 148 | 7.8 | 20.9 | 0.00 | 0.03 | 0.03 | 50 | 1006.0 |
| 20260505201427 | 61 | 178 | 10.4 | 20.9 | 0.00 | 0.03 | 0.03 | 50 | 1005.9 |
| 20260505200355 | 62 | 213 | 12.2 | 19.1 | 0.00 | 0.03 | 0.03 | 52 | 1005.9 |
| 20260505194149 | 62 | 221 | 8.7 | 14.8 | 0.00 | 0.03 | 0.03 | 56 | 1006.1 |
| 20260505193131 | 58 | 164 | 9.6 | 16.5 | 0.00 | 0.03 | 0.03 | 59 | 1006.2 |
| 20260505192139 | 60 | 223 | 8.7 | 19.1 | 0.00 | 0.03 | 0.03 | 58 | 1006.3 |
| 20260505191107 | 57 | 193 | 10.4 | 19.1 | 0.00 | 0.03 | 0.03 | 64 | 1006.4 |
| 20260505190126 | 56 | 157 | 10.4 | 20.9 | 0.00 | 0.03 | 0.03 | 65 | 1006.4 |
| 20260505185131 | 57 | 161 | 10.4 | 20.9 | 0.00 | 0.03 | 0.03 | 65 | 1006.6 |
| 20260505184153 | 56 | 154 | 9.6 | 17.4 | 0.00 | 0.03 | 0.03 | 71 | 1006.8 |
| 20260505183138 | 56 | 155 | 8.7 | 18.2 | 0.00 | 0.03 | 0.03 | 70 | 1006.9 |
| 20260505182106 | 55 | 219 | 7.8 | 18.2 | 0.00 | 0.03 | 0.03 | 70 | 1006.8 |
| 20260505181108 | 56 | 4 | 7.0 | 13.0 | 0.00 | 0.03 | 0.03 | 69 | 1006.8 |
| 20260505180046 | 56 | 109 | 8.7 | 13.9 | 0.00 | 0.03 | 0.03 | 72 | 1007.0 |
| 20260505175016 | 55 | 177 | 8.7 | 17.4 | 0.00 | 0.03 | 0.03 | 73 | 1006.9 |
| 20260505174017 | 55 | 200 | 8.7 | 17.4 | 0.00 | 0.03 | 0.03 | 71 | 1006.8 |
| 20260505173008 | 55 | 186 | 8.7 | 13.9 | 0.00 | 0.03 | 0.03 | 75 | 1006.8 |
| 20260505171935 | 54 | 157 | 7.8 | 13.9 | 0.00 | 0.03 | 0.03 | 74 | 1006.6 |
| 20260505170937 | 54 | 4 | 7.8 | 13.0 | 0.00 | 0.03 | 0.03 | 78 | 1006.8 |
| 20260505165919 | 54 | 184 | 4.3 | 10.4 | 0.00 | 0.03 | 0.03 | 80 | 1006.6 |
| 20260505164908 | 52 | 184 | 5.2 | 10.4 | 0.00 | 0.03 | 0.03 | 84 | 1006.4 |
| 20260505163906 | 51 | 215 | 5.2 | 9.6 | 0.00 | 0.03 | 0.03 | 86 | 1006.6 |
| 20260505162924 | 50 | 220 | 4.3 | 8.7 | 0.00 | 0.03 | 0.03 | 88 | 1006.3 |
| 20260505161944 | 49 | 194 | 5.2 | 9.6 | 0.00 | 0.03 | 0.03 | 88 | 1006.3 |
| 20260505160929 | 49 | 156 | 5.2 | 9.6 | 0.00 | 0.03 | 0.03 | 90 | 1006.1 |
| 20260505152747 | 48 | 195 | 6.1 | 10.4 | 0.00 | 0.03 | 0.03 | 91 | 1006.1 |
| 20260505151804 | 47 | 225 | 4.3 | 10.4 | 0.00 | 0.03 | 0.03 | 90 | 1005.9 |
| 20260505150750 | 46 | 199 | 4.3 | 9.6 | 0.00 | 0.02 | 0.02 | 89 | 1006.0 |
| 20260505140507 | 47 | 179 | 1.7 | 4.3 | 0.00 | 0.02 | 0.02 | 85 | 1005.4 |
| 20260505130249 | 44 | 244 | 3.5 | 7.0 | 0.00 | 0.02 | 0.02 | 88 | 1005.1 |
| 20260505124149 | 44 | 226 | 7.0 | 12.2 | 0.00 | 0.02 | 0.02 | 89 | 1005.0 |
| 20260505123121 | 44 | 142 | 6.1 | 17.4 | 0.00 | 0.02 | 0.02 | 89 | 1005.6 |
| 20260505122116 | 45 | 165 | 8.7 | 17.4 | 0.00 | 0.01 | 0.01 | 88 | 1006.1 |
| 20260505121042 | 45 | 194 | 9.6 | 19.1 | 0.00 | 0.01 | 0.01 | 88 | 1006.1 |
| 20260505120048 | 45 | 215 | 11.3 | 26.9 | 0.00 | 0.00 | 0.00 | 86 | 1006.0 |
| 20260505115049 | 46 | 163 | 13.0 | 26.9 | 0.00 | 0.00 | 0.00 | 83 | 1005.9 |
| 20260505112932 | 49 | 230 | 13.0 | 24.3 | 0.00 | 0.00 | 0.00 | 75 | 1005.6 |
| 20260505111953 | 50 | 206 | 12.2 | 24.3 | 0.00 | 0.00 | 0.00 | 72 | 1005.6 |
| 20260505111008 | 51 | 194 | 10.4 | 23.5 | 0.00 | 0.00 | 0.00 | 73 | 1005.5 |
| 20260505100755 | 50 | 168 | 7.0 | 14.8 | 0.00 | 0.00 | 0.00 | 78 | 1005.5 |
| 20260505095739 | 50 | 202 | 7.8 | 13.0 | 0.00 | 0.00 | 0.00 | 77 | 1005.6 |
| 20260505094804 | 50 | 156 | 7.0 | 11.3 | 0.00 | 0.00 | 0.00 | 77 | 1005.9 |
| 20260505093815 | 50 | 144 | 7.0 | 11.3 | 0.00 | 0.00 | 0.00 | 76 | 1005.7 |
| 20260505092749 | 50 | 186 | 7.0 | 11.3 | 0.00 | 0.00 | 0.00 | 76 | 1005.4 |
| 20260505091724 | 50 | 159 | 5.2 | 10.4 | 0.00 | 0.00 | 0.00 | 75 | 1005.7 |
| 20260505090740 | 50 | 194 | 5.2 | 10.4 | 0.00 | 0.00 | 0.00 | 74 | 1005.7 |
| 20260505085717 | 50 | 180 | 5.2 | 13.0 | 0.00 | 0.00 | 0.00 | 74 | 1005.5 |
| 20260505084646 | 51 | 152 | 6.1 | 13.0 | 0.00 | 0.00 | 0.00 | 74 | 1005.6 |
| 20260505083658 | 51 | 163 | 5.2 | 10.4 | 0.00 | 0.00 | 0.00 | 73 | 1005.6 |
| 20260505082658 | 51 | 199 | 5.2 | 9.6 | 0.00 | 0.00 | 0.00 | 73 | 1005.9 |
| 20260505081640 | 51 | 181 | 3.5 | 9.6 | 0.00 | 0.00 | 0.00 | 73 | 1006.1 |
| 20260505080700 | 51 | 196 | 2.6 | 7.8 | 0.00 | 0.00 | 0.00 | 72 | 1006.1 |
| 20260505074526 | 51 | 223 | 2.6 | 7.0 | 0.00 | 0.00 | 0.00 | 72 | 1006.3 |
| 20260505072430 | 51 | 200 | 2.6 | 4.3 | 0.00 | 0.00 | 0.00 | 71 | 1006.2 |
| 20260505071432 | 51 | 214 | 2.6 | 7.0 | 0.00 | 0.00 | 0.00 | 70 | 1006.1 |
| 20260505065304 | 52 | 232 | 4.3 | 11.3 | 0.00 | 0.00 | 0.00 | 69 | 1006.0 |
| 20260505064230 | 52 | 223 | 5.2 | 11.3 | 0.00 | 0.00 | 0.00 | 68 | 1006.2 |
| 20260505063227 | 52 | 201 | 5.2 | 10.4 | 0.00 | 0.00 | 0.00 | 67 | 1006.2 |
| 20260505062209 | 52 | 201 | 6.1 | 11.3 | 0.00 | 0.00 | 0.00 | 67 | 1006.0 |
| 20260505061151 | 53 | 211 | 6.1 | 11.3 | 0.00 | 0.00 | 0.00 | 67 | 1005.7 |
| 20260505060149 | 53 | 202 | 6.1 | 13.9 | 0.00 | 0.00 | 0.00 | 66 | 1005.4 |
| 20260505055118 | 53 | 213 | 9.6 | 14.8 | 0.00 | 0.00 | 0.00 | 65 | 1005.4 |
| 20260505054122 | 53 | 253 | 7.8 | 14.8 | 0.00 | 0.00 | 0.00 | 64 | 1005.9 |
| 20260505053142 | 53 | 221 | 6.1 | 14.8 | 0.00 | 0.00 | 0.00 | 63 | 1006.3 |
| 20260505052135 | 54 | 201 | 9.6 | 19.1 | 0.00 | 0.00 | 0.00 | 63 | 1006.7 |
| 20260505040937 | 55 | 4 | 9.6 | 17.4 | 0.00 | 0.00 | 0.00 | 58 | 1006.5 |
| 20260505035956 | 56 | 223 | 11.3 | 20.9 | 0.00 | 0.00 | 0.00 | 55 | 1006.5 |
| 20260505033815 | 56 | 194 | 11.3 | 20.0 | 0.00 | 0.00 | 0.00 | 54 | 1006.5 |
| 20260505032810 | 56 | 203 | 11.3 | 19.1 | 0.00 | 0.00 | 0.00 | 53 | 1006.7 |
| 20260505031831 | 56 | 199 | 11.3 | 19.1 | 0.00 | 0.00 | 0.00 | 52 | 1006.8 |
| 20260505030758 | 56 | 4 | 12.2 | 20.0 | 0.00 | 0.00 | 0.00 | 50 | 1006.7 |
| 20260505025732 | 57 | 202 | 14.8 | 23.5 | 0.00 | 0.00 | 0.00 | 49 | 1006.4 |
| 20260505024751 | 57 | 230 | 13.9 | 23.5 | 0.00 | 0.00 | 0.00 | 47 | 1006.0 |
| 20260505023751 | 58 | 179 | 12.2 | 26.1 | 0.00 | 0.00 | 0.00 | 44 | 1005.9 |
| 20260505022725 | 59 | 237 | 14.8 | 26.1 | 0.00 | 0.00 | 0.00 | 40 | 1005.7 |
| 20260505021654 | 61 | 212 | 13.9 | 22.6 | 0.00 | 0.00 | 0.00 | 35 | 1005.9 |
| 20260505014416 | 63 | 213 | 10.4 | 17.4 | 0.00 | 0.00 | 0.00 | 31 | 1005.4 |
| 20260505013426 | 63 | 192 | 9.6 | 19.1 | 0.00 | 0.00 | 0.00 | 30 | 1005.2 |
| 20260505011238 | 64 | 174 | 12.2 | 24.3 | 0.00 | 0.00 | 0.00 | 28 | 1005.0 |
| 20260505010207 | 65 | 203 | 13.0 | 26.9 | 0.00 | 0.00 | 0.00 | 26 | 1004.7 |
| 20260505005209 | 66 | 175 | 13.0 | 26.9 | 0.00 | 0.00 | 0.00 | 25 | 1004.6 |
| 20260505003116 | 67 | 186 | 13.0 | 24.3 | 0.00 | 0.00 | 0.00 | 22 | 1004.5 |
| 20260505002116 | 68 | 163 | 11.3 | 17.4 | 0.00 | 0.00 | 0.00 | 20 | 1004.3 |
| 20260505001053 | 68 | 173 | 13.0 | 24.3 | 0.00 | 0.00 | 0.00 | 20 | 1004.3 |
| 20260505000116 | 68 | 173 | 11.3 | 24.3 | 0.00 | 0.00 | 0.00 | 20 | 1004.4 |
| 20260504235126 | 68 | 214 | 12.2 | 23.5 | 0.00 | 0.00 | 0.00 | 21 | 1004.6 |
| 20260504234102 | 68 | 154 | 12.2 | 18.2 | 0.00 | 0.00 | 0.00 | 20 | 1004.7 |
| 20260504233109 | 69 | 205 | 11.3 | 21.7 | 0.00 | 0.00 | 0.00 | 19 | 1004.8 |